| time (UTC) | temp F | wind direction | speed knots | gust knots | rain 1hr in | rain 24hr in | rain mn in | humidity % | barometer mb |
| 20260505051534 | 54 | 326 | 0.0 | 3.5 | 0.01 | 0.01 | 0.00 | 62 | 1002.4 |
| 20260505041527 | 56 | 310 | 1.7 | 3.5 | 0.00 | 0.00 | 0.00 | 68 | 1000.2 |
| 20260505040027 | 56 | 328 | 1.7 | 5.2 | 0.00 | 0.00 | 0.00 | 70 | 1000.2 |
| 20260505034528 | 57 | 330 | 1.7 | 7.0 | 0.00 | 0.00 | 0.00 | 71 | 1000.3 |
| 20260505033027 | 58 | 332 | 1.7 | 5.2 | 0.00 | 0.00 | 0.00 | 75 | 1000.3 |
| 20260505031526 | 59 | 350 | 2.6 | 7.8 | 0.00 | 0.00 | 0.00 | 78 | 1000.1 |
| 20260505030041 | 59 | 297 | 2.6 | 7.8 | 0.00 | 0.00 | 0.00 | 80 | 1000.2 |
| 20260505024524 | 59 | 318 | 1.7 | 3.5 | 0.00 | 0.00 | 0.00 | 87 | 999.6 |
| 20260505023025 | 60 | 326 | 0.9 | 3.5 | 0.00 | 0.00 | 0.00 | 86 | 999.3 |
| 20260505021523 | 60 | 292 | 1.7 | 3.5 | 0.00 | 0.00 | 0.00 | 82 | 999.4 |
| 20260505020021 | 61 | 289 | 1.7 | 6.1 | 0.00 | 0.00 | 0.00 | 82 | 998.9 |
| 20260505014523 | 62 | 259 | 2.6 | 11.3 | 0.00 | 0.00 | 0.00 | 78 | 998.4 |
| 20260505013122 | 63 | 294 | 7.0 | 11.3 | 0.00 | 0.00 | 0.00 | 72 | 998.7 |
| 20260505011519 | 64 | 314 | 0.9 | 4.3 | 0.00 | 0.00 | 0.00 | 69 | 998.3 |
| 20260505010018 | 67 | 311 | 1.7 | 8.7 | 0.00 | 0.00 | 0.00 | 59 | 998.3 |
| 20260505004530 | 70 | 194 | 2.6 | 13.9 | 0.00 | 0.00 | 0.00 | 48 | 997.4 |
| 20260505003017 | 74 | 240 | 4.3 | 10.4 | 0.00 | 0.00 | 0.00 | 50 | 997.0 |
| 20260505001516 | 74 | 213 | 4.3 | 9.6 | 0.00 | 0.00 | 0.00 | 50 | 996.6 |
| 20260505000017 | 75 | 232 | 6.1 | 10.4 | 0.00 | 0.00 | 0.00 | 49 | 996.2 |
| 20260504234518 | 75 | 209 | 6.1 | 9.6 | 0.00 | 0.00 | 0.00 | 49 | 996.5 |
| 20260504233020 | 77 | 229 | 7.8 | 15.6 | 0.00 | 0.00 | 0.00 | 46 | 996.7 |
| 20260504231512 | 79 | 190 | 11.3 | 17.4 | 0.00 | 0.00 | 0.00 | 45 | 996.6 |
| 20260504230012 | 79 | 211 | 10.4 | 20.0 | 0.00 | 0.00 | 0.00 | 44 | 996.3 |
| 20260504224509 | 79 | 185 | 12.2 | 19.1 | 0.00 | 0.00 | 0.00 | 44 | 996.4 |
| 20260504223008 | 79 | 182 | 8.7 | 15.6 | 0.00 | 0.00 | 0.00 | 44 | 996.6 |
| 20260504221506 | 79 | 194 | 7.8 | 15.6 | 0.00 | 0.00 | 0.00 | 44 | 996.6 |
| 20260504220006 | 79 | 213 | 11.3 | 18.2 | 0.00 | 0.00 | 0.00 | 42 | 996.7 |
| 20260504214503 | 79 | 216 | 8.7 | 20.0 | 0.00 | 0.00 | 0.00 | 42 | 997.0 |
| 20260504213004 | 79 | 197 | 9.6 | 16.5 | 0.00 | 0.00 | 0.00 | 43 | 997.1 |
| 20260504211558 | 79 | 216 | 8.7 | 17.4 | 0.00 | 0.00 | 0.00 | 40 | 997.2 |
| 20260504210057 | 78 | 198 | 10.4 | 15.6 | 0.00 | 0.00 | 0.00 | 41 | 997.5 |
| 20260504204555 | 79 | 219 | 9.6 | 16.5 | 0.00 | 0.00 | 0.00 | 44 | 997.7 |
| 20260504203052 | 78 | 205 | 9.6 | 13.9 | 0.00 | 0.00 | 0.00 | 43 | 997.9 |
| 20260504201553 | 79 | 219 | 9.6 | 20.9 | 0.00 | 0.00 | 0.00 | 42 | 998.0 |
| 20260504200048 | 78 | 214 | 7.8 | 14.8 | 0.00 | 0.00 | 0.00 | 43 | 998.1 |
| 20260504194553 | 78 | 220 | 10.4 | 18.2 | 0.00 | 0.00 | 0.00 | 43 | 998.2 |
| 20260504193048 | 77 | 225 | 8.7 | 14.8 | 0.00 | 0.00 | 0.00 | 46 | 998.2 |
| 20260504191608 | 77 | 201 | 7.8 | 14.8 | 0.00 | 0.00 | 0.00 | 45 | 998.3 |
| 20260504190041 | 76 | 205 | 9.6 | 18.2 | 0.00 | 0.00 | 0.00 | 46 | 998.4 |
| 20260504184550 | 76 | 221 | 9.6 | 16.5 | 0.00 | 0.00 | 0.00 | 45 | 998.5 |
| 20260504183038 | 77 | 219 | 8.7 | 20.0 | 0.00 | 0.00 | 0.00 | 46 | 998.5 |
| 20260504181535 | 76 | 230 | 8.7 | 17.4 | 0.00 | 0.00 | 0.00 | 45 | 998.6 |
| 20260504180036 | 75 | 211 | 8.7 | 18.2 | 0.00 | 0.00 | 0.00 | 47 | 998.6 |
| 20260504174533 | 75 | 229 | 11.3 | 19.1 | 0.00 | 0.00 | 0.00 | 48 | 998.6 |
| 20260504173030 | 75 | 204 | 8.7 | 20.9 | 0.00 | 0.00 | 0.00 | 49 | 998.7 |
| 20260504171528 | 74 | 216 | 8.7 | 15.6 | 0.00 | 0.00 | 0.00 | 50 | 999.1 |
| 20260504140105 | 66 | 185 | 7.0 | 10.4 | 0.00 | 0.00 | 0.00 | 63 | 1000.8 |
| 20260504081505 | 54 | 207 | 3.5 | 7.0 | 0.00 | 0.00 | 0.00 | 68 | 1003.3 |